LW9ERO Weather Reports


time (UTC)temp
F
wind
direction
speed
knots
gust
knots
rain 1hr
in
rain 24hr
in
rain mn
in
humidity
%
barometer
mb
20260507202926 53 270 12.2 25.2 0.00 0.02 0.01 88 1005.7
20260507201920 53 270 9.6 23.5 0.00 0.02 0.01 91 1005.3
20260507200912 53 270 13.0 23.5 0.00 0.02 0.01 94 1005.1
20260507195905 53 225 10.4 20.9 0.00 0.02 0.01 94 1004.9
20260507194858 53 0 8.7 20.9 0.00 0.02 0.01 95 1004.8
20260507193854 53 248 7.8 14.8 0.00 0.02 0.01 94 1004.9
20260507192846 54 248 7.0 14.8 0.00 0.02 0.01 93 1004.5
20260507191840 54 270 7.0 15.6 0.00 0.02 0.01 91 1005.2
20260507190833 55 270 8.7 18.2 0.00 0.02 0.01 89 1005.6
20260507185828 55 270 8.7 15.6 0.00 0.02 0.01 89 1005.9
20260507184822 55 293 8.7 15.6 0.00 0.02 0.01 89 1006.3
20260507183818 55 248 7.8 17.4 0.00 0.02 0.01 88 1006.2
20260507182809 56 293 8.7 14.8 0.00 0.02 0.01 85 1006.2
20260507181803 56 270 5.2 15.6 0.00 0.02 0.01 85 1006.6
20260507180757 55 270 9.6 15.6 0.00 0.02 0.01 85 1006.3
20260507175750 56 270 8.7 17.4 0.00 0.02 0.01 84 1006.4
20260507174744 56 225 6.1 13.9 0.00 0.02 0.01 85 1006.2
20260507173738 55 225 9.6 18.2 0.00 0.02 0.01 83 1006.0
20260507172732 56 293 8.7 19.1 0.00 0.02 0.01 82 1005.9
20260507171726 56 225 8.7 19.1 0.00 0.02 0.01 81 1005.9
20260507170726 56 225 9.6 17.4 0.00 0.02 0.01 80 1006.0
20260507165714 56 248 9.6 20.0 0.00 0.02 0.01 79 1006.0
20260507164709 57 248 7.0 20.9 0.00 0.02 0.01 79 1006.0
20260507163701 57 270 9.6 21.7 0.00 0.02 0.01 78 1006.3
20260507162655 56 293 11.3 18.2 0.00 0.02 0.01 77 1006.6
20260507161649 57 270 13.0 19.1 0.00 0.02 0.01 77 1006.4
20260507160643 57 293 10.4 20.9 0.00 0.02 0.01 76 1006.3
20260507155637 58 270 12.2 20.9 0.00 0.02 0.01 76 1006.4
20260507154630 58 270 10.4 15.6 0.00 0.02 0.01 75 1006.3
20260507153625 58 248 9.6 19.1 0.00 0.02 0.01 75 1006.4
20260507152620 58 270 4.3 14.8 0.00 0.02 0.01 76 1006.4
20260507151612 58 270 8.7 17.4 0.00 0.02 0.01 75 1006.2
20260507150605 58 225 9.6 17.4 0.00 0.02 0.01 76 1005.7
20260507145559 58 270 7.0 17.4 0.00 0.02 0.01 77 1006.1
20260507144553 57 203 9.6 14.8 0.00 0.02 0.01 77 1006.3
20260507143547 57 270 7.8 18.2 0.00 0.02 0.01 77 1006.4
20260507142541 56 248 9.6 18.2 0.00 0.02 0.01 78 1006.4
20260507141534 57 248 9.6 18.2 0.00 0.02 0.01 77 1006.3
20260507140528 57 270 5.2 13.0 0.00 0.02 0.01 78 1006.8
20260507135523 56 248 6.1 15.6 0.00 0.02 0.01 79 1006.7
20260507134519 56 180 8.7 11.3 0.00 0.02 0.01 78 1007.3
20260507133510 56 270 3.5 13.0 0.00 0.02 0.01 79 1007.2
20260507132503 56 248 8.7 12.2 0.00 0.02 0.01 79 1007.5
20260507131457 56 248 7.0 14.8 0.00 0.02 0.01 80 1007.1
20260507130452 56 248 7.8 13.0 0.00 0.02 0.01 81 1006.5
20260507125444 56 270 5.2 12.2 0.00 0.02 0.01 81 1006.1
20260507124438 55 248 7.0 14.8 0.00 0.02 0.01 81 1005.9
20260507123432 55 315 7.0 20.9 0.00 0.02 0.01 82 1004.9
20260507122426 55 203 9.6 20.0 0.00 0.02 0.01 82 1004.9
20260507121421 55 225 9.6 18.2 0.00 0.02 0.01 84 1004.4
20260507120414 55 293 8.7 17.4 0.00 0.02 0.01 84 1004.7
20260507115408 55 270 7.0 15.6 0.00 0.02 0.01 85 1004.4
20260507114402 56 248 8.7 18.2 0.00 0.02 0.01 86 1004.0
20260507113355 56 248 8.7 21.7 0.00 0.02 0.01 86 1003.8
20260507112349 57 158 10.4 19.1 0.00 0.02 0.01 89 1005.1
20260507111355 57 248 7.0 18.2 0.00 0.02 0.01 88 1005.7
20260507110337 57 270 8.7 15.6 0.00 0.02 0.01 90 1006.2
20260507105330 57 248 9.6 17.4 0.00 0.02 0.01 90 1006.0
20260507104324 58 270 7.8 15.6 0.00 0.02 0.01 91 1006.0
20260507103321 58 225 9.6 17.4 0.00 0.02 0.01 91 1005.5
20260507102312 58 225 7.0 17.4 0.00 0.02 0.01 92 1006.0
20260507101306 58 203 10.4 17.4 0.00 0.02 0.01 92 1006.1
20260507100259 58 225 9.6 19.1 0.00 0.02 0.01 93 1005.5
20260507095253 57 270 7.8 13.9 0.00 0.02 0.01 95 1005.6
20260507094248 57 270 7.0 13.9 0.00 0.02 0.01 96 1005.6
20260507093242 57 248 7.0 12.2 0.00 0.02 0.01 96 1006.4
20260507092236 57 248 4.3 11.3 0.00 0.02 0.01 97 1006.0
20260507091229 56 270 5.2 9.6 0.00 0.02 0.01 97 1006.2
20260507090239 56 293 5.2 9.6 0.00 0.02 0.01 97 1006.5
20260507085221 56 270 5.2 9.6 0.00 0.02 0.01 97 1006.3
20260507084211 56 248 4.3 9.6 0.00 0.02 0.01 97 1006.5
20260507083204 56 270 5.2 9.6 0.00 0.02 0.01 97 1006.5
20260507082158 56 293 6.1 11.3 0.00 0.02 0.01 97 1006.6
20260507081152 56 270 4.3 9.6 0.00 0.02 0.01 97 1006.1
20260507080145 57 270 5.2 9.6 0.00 0.02 0.01 97 1006.1
20260507075139 57 248 4.3 11.3 0.00 0.02 0.01 98 1005.8
20260507074133 57 270 5.2 7.8 0.00 0.02 0.01 97 1006.3
20260507073126 57 203 4.3 7.0 0.00 0.02 0.01 97 1006.1
20260507072120 57 203 3.5 7.0 0.00 0.02 0.01 97 1006.1
20260507071114 57 180 4.3 7.8 0.00 0.02 0.01 97 1006.0
20260507070121 58 225 2.6 7.8 0.00 0.02 0.01 97 1006.4
20260507065102 58 270 3.5 9.6 0.01 0.02 0.01 97 1005.5
20260507064055 58 225 3.5 6.1 0.01 0.02 0.01 96 1005.3
20260507063049 58 225 3.5 6.1 0.01 0.02 0.01 96 1005.8
20260507062043 58 225 2.6 6.1 0.01 0.02 0.01 96 1006.1
20260507061037 59 203 1.7 3.5 0.01 0.02 0.01 96 1005.7
20260507060032 59 225 2.6 3.5 0.01 0.02 0.01 96 1006.2
20260507055030 59 180 1.7 5.2 0.00 0.01 0.00 96 1005.9
20260507054026 59 203 1.7 7.0 0.00 0.01 0.00 95 1006.2
20260507053012 59 180 0.9 3.5 0.00 0.01 0.00 95 1006.4
20260507052009 59 180 1.7 3.5 0.00 0.01 0.00 95 1005.9
20260507050959 59 180 1.7 3.5 0.00 0.01 0.00 95 1005.7
20260507045954 59 180 1.7 3.5 0.00 0.01 0.00 95 1005.4
20260507044949 60 180 1.7 7.0 0.00 0.01 0.00 95 1004.3
20260507043942 60 203 3.5 6.1 0.00 0.01 0.00 95 1003.4
20260507042935 59 203 2.6 5.2 0.00 0.01 0.00 96 1003.5
20260507041929 60 158 0.9 3.5 0.00 0.01 0.00 95 1003.7
20260507040923 59 203 1.7 3.5 0.00 0.01 0.00 95 1005.0
20260507035917 60 158 0.9 3.5 0.00 0.01 0.00 95 1005.9
20260507034911 59 158 0.0 3.5 0.00 0.01 0.00 95 1005.8
20260507033904 60 203 1.7 3.5 0.00 0.01 0.00 94 1005.5
20260507032858 60 203 1.7 3.5 0.00 0.01 0.00 94 1005.7
20260507031852 60 225 1.7 3.5 0.00 0.01 0.00 93 1005.8
20260507030846 60 180 0.0 1.7 0.00 0.01 0.00 93 1005.0
20260507025840 60 225 0.0 1.7 0.00 0.01 0.90 92 1004.4
20260507024834 61 225 0.9 3.5 0.00 0.01 0.90 92 1003.9
20260507023827 61 225 0.9 1.7 0.00 0.01 0.90 90 1004.4
20260507022822 62 203 0.0 3.5 0.00 0.01 0.90 89 1004.8
20260507021814 62 203 0.9 3.5 0.00 0.01 0.90 89 1004.8
20260507020809 62 135 0.0 1.7 0.00 0.01 0.90 88 1004.9
20260507015804 63 90 0.9 5.2 0.00 0.01 0.90 87 1004.9
20260507014756 63 158 1.7 9.6 0.00 0.01 0.90 88 1004.1
20260507013750 62 135 3.5 9.6 0.00 0.01 0.90 89 1003.2
20260507012744 63 180 5.2 13.0 0.00 0.01 0.90 89 1003.5
20260507011751 64 203 7.0 18.2 0.00 0.01 0.90 87 1004.4
20260507010732 65 158 9.6 20.0 0.00 0.01 0.90 90 1004.8
20260507005726 67 180 10.4 25.2 0.00 0.01 0.90 91 1004.5
20260507004719 71 270 9.6 18.2 0.00 0.01 0.90 95 1003.5
20260507003713 71 293 3.5 6.1 0.00 0.01 0.90 98 1003.3
20260507002707 71 270 0.9 5.2 0.00 0.01 0.90 98 1003.4
20260507001701 70 293 1.7 5.2 0.00 0.01 0.90 98 1002.9
20260507000655 71 270 1.7 7.0 0.00 0.01 0.90 98 1003.2
20260506235649 71 270 5.2 11.3 0.00 0.01 0.90 98 1003.7
20260506234642 71 315 5.2 12.2 0.01 0.01 0.08 98 1003.0
20260506233636 69 270 1.7 6.1 0.01 0.01 0.08 97 1003.0
20260506232630 69 270 3.5 5.2 0.01 0.01 0.08 97 1003.0
20260506231637 69 225 0.0 7.8 0.01 0.01 0.08 97 1002.1
20260506230620 69 248 2.6 25.2 0.01 0.01 0.08 96 1002.3
20260506225611 73 270 16.5 23.5 0.01 0.01 0.08 94 1004.1
20260506224604 74 270 1.7 3.5 0.00 0.00 0.07 93 1001.3
20260506223559 74 68 2.6 3.5 0.00 0.00 0.07 92 1001.0
20260506222552 75 315 0.0 1.7 0.00 0.00 0.07 92 1002.1
20260506221548 75 270 0.9 1.7 0.00 0.00 0.07 92 1002.7
20260506220540 75 338 0.0 1.7 0.00 0.00 0.07 91 1002.9
20260506215533 75 45 0.0 1.7 0.00 0.00 0.07 91 1003.1
20260506214528 75 45 0.0 1.7 0.00 0.00 0.07 90 1003.3
20260506213522 75 45 0.0 1.7 0.00 0.00 0.07 90 1003.5
20260506212517 75 68 0.0 3.5 0.00 0.00 0.07 88 1003.0
20260506211509 76 68 1.7 3.5 0.00 0.00 0.07 86 1003.0
20260506210515 77 0 0.9 3.5 0.00 0.00 0.07 84 1002.9
20260506205442 77 0 1.7 3.5 0.00 0.00 0.07 81 1003.1
20260506204436 78 23 0.9 3.5 0.00 0.00 0.07 80 1003.2
20260506203430 78 45 0.9 3.5 0.00 0.00 0.07 82 1003.5